Miami, FL

10:02 PM EDT en Agosto 16, 2017 (GMT -0400)
Miami International

Tiempo Historia de KMIA - Junio, 2017

Change the Weather History Date:

Lunes, Junio 19, 2017

  Actual Average Record
Temperature  
Temperatura media 82 ° F 83 ° F  
Temperatura máxima 87 ° F 90 ° F 93 ° F (1953)
Temperatura mínima 76 ° F 76 ° F 68 ° F (1956)
Degree Days  
Grados día de calefacción 0 0  
Month to date heating degree days 0 0  
Since 1 June heating degree days 0 0  
Since 1 July heating degree days 17 128  
Cooling Degree Days 17 18  
Month to date cooling degree days 341 333  
Year to date cooling degree days 2045 1689  
Since 1 June cooling degree days 341 333  
Growing Degree Days 31 (Base 50)    
Moisture  
Punto de rocío 74 ° F    
Average Humidity 78    
Maximum Humidity 91    
Minimum Humidity 65    
Precipitación  
Precipitación 1.48 pul 0.36 pul 2.46 pul (1968)
Month to date precipitation 13.29 6.03  
Year to date precipitation 26.77 21.38  
Nieve  
Nieve 0.00 pul - - ()
Month to date snowfall 0.0  
Since 1 June snowfall 0.0  
Since 1 July snowfall 0.0  
Grosos de nieve 0.00 pul    
Presión al nivel del mar  
Presión al nivel del mar 29.99 pul    
Viento  
Velocidad del viento 11 mph (SE)    
Velocidad máxima del viento 28 mph    
Max Gust Speed 37 mph    
Visibilidad 8 Millas    
Eventos Lluvia , Tormenta    
T = Trace of Precipitation, MM = Missing Value Source: NWS Daily Summary

Daily Weather History Graph

Daily Weather History Graph

Search for Another Location

Airport or City:

Trip Planner

Search our weather history database for the weather conditions in past years. The results will help you decide how hot, cold, wet, or windy it might be!

Date:

Astronomía

Jun. 19, 2017 Salida Puesta
Hora real 6:30 AM EDT 8:15 PM EDT
Crepúsculo civil 6:04 AM EDT 8:41 PM EDT
Crepúsculo náutico 5:32 AM EDT 9:12 PM EDT
Crepúsculo astronómico 4:59 AM EDT 9:45 PM EDT
Luna 2:46 AM EDT (6/19) 3:33 PM EDT (6/19)
Horas de luz 14h 37m
Horas de luz
13h 45m
Creciente menguante, 27% of the Moon is Illuminated
Jun 19
Creciente menguante
Jun 23
Nueva
Jun 30
Cuarto creciente
Jul 9
Luna llena
Jul 16
Cuarto menguante

Hourly Weather History & Observations

Hora (EDT) Temp. Índice de calor Punto de rocío Humedad Presión Visibilidad Wind Dir Velocidad del viento Velocidad de ráfagas Precip Eventos Condiciones
1:53 AM 81.0 ° F 85.8 ° F 73.0 ° F 77% 29.97 pul 10.0 mi SE 5.8 mph - 0.00 pul   Muy nublado
2:53 AM 80.1 ° F 84.2 ° F 73.0 ° F 79% 29.95 pul 10.0 mi ESE 5.8 mph - N/A   Muy nublado
3:53 AM 81.0 ° F 85.8 ° F 73.0 ° F 77% 29.93 pul 10.0 mi Este 8.1 mph - 0.00 pul Lluvia Lluvia débil
4:53 AM 81.0 ° F 84.9 ° F 71.1 ° F 72% 29.93 pul 10.0 mi ESE 9.2 mph - 0.00 pul   Muy nublado
5:53 AM 82.0 ° F 86.3 ° F 71.1 ° F 69% 29.94 pul 10.0 mi SE 11.5 mph 19.6 mph N/A   Muy nublado
6:53 AM 82.0 ° F 87.9 ° F 73.9 ° F 76% 29.96 pul 10.0 mi ESE 12.7 mph - N/A   Muy nublado
7:43 AM 82.9 ° F 90.8 ° F 75.9 ° F 79% 29.96 pul 10.0 mi ESE 12.7 mph - N/A   Muy nublado
7:47 AM 82.4 ° F 89.5 ° F 75.2 ° F 79% 29.97 pul 10.0 mi ESE 12.7 mph - N/A   Muy nublado
7:53 AM 82.9 ° F 90.8 ° F 75.9 ° F 79% 29.97 pul 10.0 mi ESE 16.1 mph - N/A   Muy nublado
8:53 AM 84.9 ° F 93.3 ° F 75.0 ° F 72% 29.98 pul 10.0 mi ESE 20.7 mph 27.6 mph N/A   Muy nublado
9:33 AM 77.0 ° F - 73.0 ° F 88% 30.00 pul 1.0 mi SE 19.6 mph 32.2 mph 0.23 pul Lluvia Lluvias fuertes
9:47 AM 77.0 ° F - 73.4 ° F 89% 30.01 pul 2.0 mi SE 16.1 mph 25.3 mph 0.49 pul Lluvia Lluvia
9:51 AM 77.0 ° F - 73.4 ° F 89% 30.01 pul 3.0 mi SE 16.1 mph 24.2 mph 0.51 pul Lluvia Lluvia
9:53 AM 75.9 ° F - 73.0 ° F 91% 30.01 pul 3.0 mi SE 13.8 mph 24.2 mph 0.52 pul Lluvia Lluvia
10:53 AM 77.0 ° F - 73.0 ° F 88% 30.01 pul 7.0 mi Este 8.1 mph - 0.14 pul Lluvia Lluvia débil
11:32 AM 78.1 ° F - 73.9 ° F 87% 30.02 pul 4.0 mi SSE 17.3 mph 32.2 mph 0.02 pul Lluvia Lluvia
11:34 AM 78.1 ° F - 73.9 ° F 87% 30.02 pul 1.0 mi SSE 11.5 mph 32.2 mph 0.03 pul Lluvia Lluvia
11:40 AM 77.0 ° F - 73.9 ° F 90% 30.02 pul 1.5 mi SSE 10.4 mph - 0.13 pul Lluvia Lluvias fuertes
11:48 AM 77.0 ° F - 73.4 ° F 89% 30.02 pul 1.5 mi SSE 9.2 mph 18.4 mph 0.16 pul Lluvia Lluvia
11:53 AM 77.0 ° F - 73.9 ° F 90% 30.03 pul 1.5 mi SSE 9.2 mph 18.4 mph 0.17 pul Lluvia Lluvia
12:05 PM 77.0 ° F - 73.9 ° F 90% 30.02 pul 1.0 mi SSE 16.1 mph 26.5 mph 0.19 pul Lluvia Lluvias fuertes
12:20 PM 75.9 ° F - 73.0 ° F 91% 30.02 pul 1.5 mi SE 12.7 mph - 0.39 pul Lluvia Lluvias fuertes
12:45 PM 78.1 ° F - 75.0 ° F 90% 30.01 pul 5.0 mi ESE 8.1 mph - 0.45 pul Lluvia Lluvia
12:53 PM 79.0 ° F - 75.0 ° F 88% 30.01 pul 8.0 mi ESE 8.1 mph - 0.46 pul Lluvia Lluvia débil
12:56 PM 79.0 ° F - 75.9 ° F 90% 30.01 pul 7.0 mi ESE 6.9 mph - 0.00 pul Lluvia , Tormenta Tormenta débil
1:07 PM 78.1 ° F - 73.9 ° F 87% 30.01 pul 1.0 mi ESE 18.4 mph 34.5 mph 0.02 pul Lluvia , Tormenta Tormenta fuerte
1:16 PM 77.0 ° F - 73.0 ° F 88% 30.01 pul 7.0 mi ESE 9.2 mph 24.2 mph 0.18 pul Lluvia Lluvia débil
1:53 PM 81.0 ° F 86.7 ° F 75.0 ° F 82% 30.00 pul 10.0 mi SE 13.8 mph 23.0 mph 0.19 pul Lluvia Lluvia débil
2:53 PM 81.0 ° F 85.8 ° F 73.0 ° F 77% 29.99 pul 10.0 mi SE 10.4 mph 21.9 mph 0.00 pul   Nublado
3:53 PM 84.0 ° F 93.7 ° F 77.0 ° F 79% 29.97 pul 10.0 mi Este 10.4 mph - 0.00 pul   Nublado
4:53 PM 86.0 ° F 96.0 ° F 75.9 ° F 72% 29.96 pul 10.0 mi SE 12.7 mph - N/A   Nublado
5:53 PM 86.0 ° F 93.8 ° F 73.9 ° F 67% 29.96 pul 10.0 mi SE 16.1 mph 20.7 mph N/A   Nublado
6:53 PM 84.9 ° F 92.1 ° F 73.9 ° F 69% 29.97 pul 10.0 mi ESE 10.4 mph 19.6 mph N/A   Nublado
7:53 PM 84.0 ° F 91.9 ° F 75.0 ° F 74% 29.99 pul 10.0 mi ESE 12.7 mph - N/A   Nublado
8:53 PM 84.0 ° F 91.9 ° F 75.0 ° F 74% 29.99 pul 10.0 mi ESE 11.5 mph - N/A   Muy nublado
9:53 PM 84.0 ° F 91.9 ° F 75.0 ° F 74% 30.01 pul 10.0 mi ESE 8.1 mph - N/A   Muy nublado
10:53 PM 82.9 ° F 90.2 ° F 75.0 ° F 77% 30.02 pul 10.0 mi ESE 6.9 mph - N/A   Muy nublado
11:53 PM 82.9 ° F 90.8 ° F 75.9 ° F 79% 30.02 pul 10.0 mi ESE 9.2 mph - N/A   Muy nublado